Radiation Dose at Monitoring Post of Fukushima Daini Nuclear Power Station
Date,Time,MP-1(microSv/h),MP-2(microSv/h),MP-3(microSv/h),MP-4(microSv/h),MP-5(microSv/h),MP-6(microSv/h),MP-7(microSv/h),Wind Direction,Wind Velocity(m/s),Rain
2016/04/18,00:00,0.446,0.259,0.467,0.412,0.387,0.209,0.181,north-northwest,2.6,No
2016/04/18,00:10,0.445,0.259,0.464,0.413,0.391,0.210,0.182,north-northwest,3.1,No
2016/04/18,00:20,0.446,0.260,0.467,0.411,0.388,0.210,0.181,north,4.5,No
2016/04/18,00:30,0.445,0.259,0.464,0.413,0.391,0.211,0.180,north-northwest,2.9,No
2016/04/18,00:40,0.449,0.260,0.467,0.411,0.387,0.210,0.181,north,4.1,No
2016/04/18,00:50,0.445,0.259,0.465,0.414,0.388,0.209,0.181,north,4.4,No
2016/04/18,01:00,0.449,0.260,0.466,0.414,0.389,0.210,0.181,north-northwest,4.2,No
2016/04/18,01:10,0.445,0.259,0.468,0.412,0.391,0.211,0.182,north-northwest,5.2,No
2016/04/18,01:20,0.448,0.258,0.465,0.413,0.391,0.210,0.183,north-northwest,3.2,No
2016/04/18,01:30,0.445,0.259,0.467,0.412,0.387,0.211,0.181,west-northwest,5.0,No
2016/04/18,01:40,0.449,0.257,0.464,0.414,0.390,0.210,0.182,west-northwest,5.2,No
2016/04/18,01:50,0.445,0.260,0.468,0.412,0.388,0.210,0.182,west-northwest,5.6,No
2016/04/18,02:00,0.449,0.260,0.465,0.413,0.393,0.211,0.182,west-northwest,3.8,No
2016/04/18,02:10,0.446,0.260,0.469,0.412,0.388,0.210,0.182,northwest,2.5,No
2016/04/18,02:20,0.448,0.260,0.465,0.413,0.391,0.211,0.181,west-northwest,1.6,No
2016/04/18,02:30,0.447,0.259,0.467,0.413,0.389,0.209,0.181,west,2.9,No
2016/04/18,02:40,0.448,0.259,0.468,0.412,0.391,0.211,0.182,west-northwest,4.4,No
2016/04/18,02:50,0.448,0.259,0.468,0.414,0.389,0.210,0.183,west,5.9,No
2016/04/18,03:00,0.445,0.261,0.467,0.412,0.389,0.211,0.181,west,5.8,No
2016/04/18,03:10,0.447,0.259,0.466,0.413,0.390,0.212,0.181,west,3.9,No
2016/04/18,03:20,0.445,0.259,0.468,0.413,0.389,0.210,0.182,west,3.8,No
2016/04/18,03:30,0.449,0.260,0.466,0.416,0.391,0.210,0.182,west,4.5,No
2016/04/18,03:40,0.445,0.259,0.469,0.413,0.388,0.211,0.182,west-northwest,4.4,No
2016/04/18,03:50,0.450,0.261,0.464,0.413,0.389,0.210,0.182,west-northwest,6.4,No
2016/04/18,04:00,0.444,0.259,0.469,0.415,0.390,0.211,0.181,west-northwest,7.0,No
2016/04/18,04:10,0.448,0.260,0.466,0.414,0.390,0.210,0.182,west-northwest,3.3,No
2016/04/18,04:20,0.446,0.259,0.469,0.415,0.391,0.211,0.182,west-northwest,4.5,No
2016/04/18,04:30,0.446,0.258,0.466,0.411,0.388,0.211,0.182,west-northwest,4.5,No
2016/04/18,04:40,0.449,0.261,0.467,0.416,0.392,0.211,0.181,west-northwest,5.8,No
2016/04/18,04:50,0.446,0.259,0.468,0.412,0.389,0.211,0.181,west,5.6,No
2016/04/18,05:00,0.449,0.260,0.465,0.414,0.390,0.212,0.182,west-northwest,4.8,No
2016/04/18,05:10,0.445,0.260,0.469,0.414,0.389,0.210,0.182,west-northwest,3.9,No
2016/04/18,05:20,0.449,0.259,0.465,0.413,0.389,0.211,0.181,west-northwest,4.3,No
2016/04/18,05:30,0.446,0.260,0.469,0.414,0.390,0.210,0.181,west,4.0,No
2016/04/18,05:40,0.451,0.259,0.465,0.412,0.389,0.210,0.181,west,5.8,No
2016/04/18,05:50,0.448,0.260,0.469,0.415,0.392,0.211,0.181,west,4.5,No
2016/04/18,06:00,0.446,0.259,0.464,0.412,0.390,0.210,0.182,west-southwest,2.7,No
2016/04/18,06:10,0.449,0.259,0.469,0.416,0.391,0.211,0.183,southwest,1.7,No
2016/04/18,06:20,0.446,0.261,0.465,0.412,0.389,0.210,0.182,north-northwest,0.6,No
2016/04/18,06:30,0.449,0.259,0.470,0.415,0.390,0.211,0.182,-,CALM,No
2016/04/18,06:40,0.446,0.262,0.466,0.413,0.388,0.210,0.181,north-northwest,0.5,No
2016/04/18,06:50,0.450,0.258,0.467,0.414,0.390,0.211,0.182,south-southwest,1.2,No
2016/04/18,07:00,0.446,0.260,0.464,0.413,0.388,0.210,0.180,south-southwest,0.9,No
2016/04/18,07:10,0.450,0.259,0.467,0.415,0.391,0.210,0.182,south-southwest,1.2,No
2016/04/18,07:20,0.447,0.260,0.463,0.410,0.389,0.211,0.181,east-southeast,0.5,No
2016/04/18,07:30,0.450,0.258,0.469,0.413,0.391,0.211,0.182,southeast,1.4,No
2016/04/18,07:40,0.445,0.258,0.465,0.410,0.388,0.210,0.183,east-southeast,1.6,No
2016/04/18,07:50,0.449,0.260,0.467,0.410,0.392,0.212,0.181,south-southeast,1.7,No
2016/04/18,08:00,0.447,0.257,0.465,0.414,0.388,0.211,0.182,southeast,1.6,No
2016/04/18,08:10,0.448,0.257,0.467,0.412,0.393,0.211,0.183,south-southeast,1.6,No
2016/04/18,08:20,0.445,0.260,0.469,0.409,0.386,0.211,0.181,south-southeast,2.3,No
2016/04/18,08:30,0.440,0.259,0.467,0.414,0.393,0.211,0.183,south-southeast,1.5,No
2016/04/18,08:40,0.448,0.257,0.470,0.412,0.389,0.210,0.183,south,3.0,No
2016/04/18,08:50,0.448,0.260,0.465,0.407,0.386,0.211,0.181,south,3.4,No
2016/04/18,09:00,0.442,0.260,0.468,0.411,0.392,0.210,0.183,south,4.1,No
2016/04/18,09:10,0.448,0.257,0.465,0.414,0.388,0.210,0.182,south-southeast,5.3,No
2016/04/18,09:20,0.448,0.260,0.472,0.412,0.387,0.211,0.180,south-southeast,5.8,No
2016/04/18,09:30,0.445,0.260,0.467,0.409,0.392,0.210,0.183,south-southeast,5.0,No
2016/04/18,09:40,0.450,0.256,0.465,0.416,0.391,0.210,0.183,south-southeast,6.0,No
2016/04/18,09:50,0.450,0.261,0.469,0.413,0.389,0.210,0.183,south-southeast,5.7,No
2016/04/18,10:00,0.446,0.260,0.464,0.414,0.393,0.211,0.185,south-southeast,5.9,No
2016/04/18,10:10,0.450,0.258,0.470,0.416,0.389,0.210,0.182,south-southeast,6.0,No
2016/04/18,10:20,0.447,0.259,0.467,0.413,0.389,0.209,0.183,south-southeast,4.1,No
2016/04/18,10:30,0.445,0.260,0.464,0.413,0.393,0.211,0.182,south-southeast,4.2,No
2016/04/18,10:40,0.450,0.259,0.471,0.416,0.388,0.210,0.182,south-southeast,4.3,No
2016/04/18,10:50,0.448,0.261,0.466,0.412,0.392,0.212,0.183,south-southeast,5.5,No
2016/04/18,11:00,0.450,0.260,0.468,0.417,0.392,0.210,0.183,south-southeast,3.9,No
2016/04/18,11:10,0.452,0.260,0.470,0.415,0.388,0.211,0.183,south-southeast,3.1,No
2016/04/18,11:20,0.447,0.261,0.466,0.415,0.395,0.211,0.183,south,4.4,No
2016/04/18,11:30,0.452,0.260,0.471,0.419,0.390,0.211,0.182,south,4.4,No
2016/04/18,11:40,0.447,0.263,0.467,0.414,0.393,0.212,0.184,south-southeast,4.8,No
2016/04/18,11:50,0.451,0.260,0.470,0.418,0.390,0.211,0.183,south,4.2,No
2016/04/18,12:00,0.447,0.261,0.467,0.415,0.393,0.212,0.183,south,4.2,No
2016/04/18,12:10,0.449,0.260,0.469,0.417,0.393,0.212,0.184,south,2.2,No
2016/04/18,12:20,0.451,0.261,0.469,0.415,0.388,0.212,0.184,south,2.8,No
2016/04/18,12:30,0.445,0.260,0.465,0.414,0.393,0.213,0.183,south,5.0,No
2016/04/18,12:40,0.452,0.260,0.473,0.416,0.392,0.212,0.183,south,4.4,No
2016/04/18,12:50,0.449,0.261,0.468,0.414,0.388,0.211,0.184,south,4.8,No
2016/04/18,13:00,0.449,0.259,0.470,0.418,0.393,0.210,0.183,south,5.0,No
2016/04/18,13:10,0.451,0.261,0.471,0.413,0.388,0.213,0.183,south,4.1,No
2016/04/18,13:20,0.449,0.260,0.468,0.417,0.394,0.211,0.183,south,5.3,No
2016/04/18,13:30,0.452,0.261,0.471,0.414,0.391,0.213,0.184,south,5.7,No
2016/04/18,13:40,0.446,0.262,0.467,0.417,0.392,0.210,0.182,south,5.2,No
2016/04/18,13:50,0.453,0.260,0.473,0.416,0.392,0.211,0.184,south,4.6,No
2016/04/18,14:00,0.448,0.262,0.467,0.417,0.391,0.211,0.183,south,4.1,No
2016/04/18,14:10,0.449,0.261,0.473,0.417,0.394,0.212,0.184,south,3.8,No
2016/04/18,14:20,0.449,0.261,0.470,0.415,0.390,0.212,0.183,south,3.3,No
2016/04/18,14:30,0.449,0.260,0.469,0.419,0.394,0.212,0.184,south-southwest,1.9,No
2016/04/18,14:40,0.449,0.261,0.472,0.413,0.389,0.211,0.184,south,0.8,No
2016/04/18,14:50,0.449,0.260,0.469,0.418,0.393,0.212,0.184,south,1.4,No
2016/04/18,15:00,0.450,0.259,0.473,0.414,0.391,0.212,0.184,southwest,0.5,No
2016/04/18,15:10,0.448,0.261,0.466,0.416,0.390,0.212,0.184,southwest,0.6,No
2016/04/18,15:20,0.450,0.261,0.473,0.415,0.393,0.212,0.184,southwest,0.7,No
2016/04/18,15:30,0.447,0.262,0.470,0.415,0.388,0.210,0.184,-,CALM,No
2016/04/18,15:40,0.451,0.260,0.469,0.417,0.393,0.213,0.183,south-southeast,0.9,No
2016/04/18,15:50,0.448,0.263,0.472,0.414,0.389,0.211,0.184,south,0.8,No
2016/04/18,16:00,0.451,0.259,0.466,0.418,0.389,0.213,0.184,south,1.4,No
2016/04/18,16:10,0.448,0.262,0.472,0.414,0.395,0.213,0.184,south-southeast,1.4,No
2016/04/18,16:20,0.452,0.262,0.468,0.418,0.389,0.213,0.184,south,1.2,No
2016/04/18,16:30,0.447,0.261,0.472,0.416,0.395,0.212,0.183,southeast,2.2,No
2016/04/18,16:40,0.449,0.259,0.472,0.417,0.389,0.213,0.186,southeast,1.7,No
2016/04/18,16:50,0.450,0.261,0.470,0.418,0.394,0.212,0.185,east-southeast,1.6,No
2016/04/18,17:00,0.449,0.260,0.472,0.414,0.391,0.211,0.184,north-northeast,0.8,No
2016/04/18,17:10,0.452,0.262,0.470,0.418,0.393,0.214,0.185,north-northwest,4.2,No
2016/04/18,17:20,0.450,0.262,0.473,0.416,0.393,0.212,0.184,northwest,8.4,Yes
2016/04/18,17:30,0.452,0.263,0.469,0.418,0.394,0.214,0.185,northwest,5.6,Yes
2016/04/18,17:40,0.449,0.262,0.473,0.418,0.392,0.214,0.185,northwest,6.5,Yes
2016/04/18,17:50,0.452,0.262,0.470,0.421,0.393,0.214,0.186,north-northwest,6.7,Yes
2016/04/18,18:00,0.453,0.263,0.475,0.418,0.395,0.214,0.186,north-northwest,5.8,Yes
2016/04/18,18:10,0.453,0.265,0.472,0.422,0.398,0.214,0.187,north-northwest,6.2,Yes
2016/04/18,18:20,0.454,0.264,0.476,0.420,0.394,0.215,0.186,north-northwest,5.3,Yes
2016/04/18,18:30,0.453,0.263,0.474,0.421,0.396,0.215,0.187,north,5.2,Yes
2016/04/18,18:40,0.453,0.263,0.474,0.420,0.394,0.216,0.186,north,5.8,No
2016/04/18,18:50,0.452,0.263,0.472,0.417,0.395,0.214,0.186,north,4.6,No
2016/04/18,19:00,0.453,0.263,0.473,0.419,0.391,0.215,0.185,north,3.7,No
2016/04/18,19:10,0.451,0.263,0.471,0.416,0.392,0.212,0.184,north-northwest,2.0,No
2016/04/18,19:20,0.451,0.261,0.472,0.419,0.393,0.213,0.185,north,0.9,No
2016/04/18,19:30,0.450,0.262,0.468,0.416,0.390,0.213,0.185,-,CALM,No
2016/04/18,19:40,0.452,0.262,0.471,0.419,0.393,0.211,0.184,southwest,1.0,No
2016/04/18,19:50,0.452,0.262,0.469,0.416,0.391,0.211,0.185,north-northwest,1.3,No
2016/04/18,20:00,0.453,0.261,0.471,0.419,0.395,0.213,0.185,north-northwest,0.9,No
2016/04/18,20:10,0.451,0.261,0.471,0.415,0.390,0.212,0.184,north-northwest,6.3,No
2016/04/18,20:20,0.450,0.262,0.472,0.418,0.392,0.212,0.184,northwest,5.4,No
2016/04/18,20:30,0.451,0.260,0.471,0.415,0.390,0.212,0.184,north-northwest,5.4,No
2016/04/18,20:40,0.451,0.262,0.470,0.419,0.393,0.213,0.184,northwest,4.5,No
2016/04/18,20:50,0.451,0.260,0.471,0.416,0.390,0.212,0.183,northwest,3.7,No
2016/04/18,21:00,0.452,0.261,0.471,0.418,0.393,0.212,0.184,north-northwest,4.1,No
2016/04/18,21:10,0.449,0.260,0.473,0.415,0.390,0.212,0.185,west-northwest,3.2,No
2016/04/18,21:20,0.452,0.262,0.470,0.417,0.392,0.213,0.183,north-northwest,7.3,No
2016/04/18,21:30,0.449,0.260,0.472,0.416,0.390,0.212,0.183,north-northwest,4.9,No
2016/04/18,21:40,0.453,0.261,0.469,0.418,0.393,0.213,0.184,north-northwest,7.0,No
2016/04/18,21:50,0.450,0.261,0.474,0.418,0.391,0.213,0.184,north-northwest,6.6,No
2016/04/18,22:00,0.454,0.261,0.467,0.416,0.390,0.212,0.184,north-northwest,4.5,No
2016/04/18,22:10,0.450,0.262,0.474,0.417,0.393,0.212,0.185,north-northwest,3.1,No
2016/04/18,22:20,0.452,0.261,0.469,0.416,0.391,0.212,0.184,northwest,4.9,No
2016/04/18,22:30,0.449,0.263,0.474,0.418,0.394,0.212,0.185,northwest,4.5,No
2016/04/18,22:40,0.452,0.260,0.469,0.415,0.390,0.212,0.184,north,5.1,No
2016/04/18,22:50,0.450,0.263,0.473,0.419,0.395,0.213,0.185,north-northwest,4.9,No
2016/04/18,23:00,0.453,0.261,0.468,0.417,0.390,0.212,0.183,northwest,4.4,No
2016/04/18,23:10,0.450,0.261,0.472,0.419,0.395,0.212,0.185,northwest,3.0,No
2016/04/18,23:20,0.452,0.261,0.471,0.416,0.391,0.212,0.184,north-northwest,5.3,No
2016/04/18,23:30,0.453,0.260,0.471,0.419,0.392,0.211,0.184,north-northwest,5.1,No
2016/04/18,23:40,0.452,0.262,0.471,0.418,0.392,0.213,0.184,northwest,5.9,No
2016/04/18,23:50,0.454,0.260,0.471,0.418,0.390,0.212,0.184,north-northwest,5.4,No
